DW8016 Weather Reports


time (UTC)temp
F
wind
direction
speed
knots
gust
knots
rain 1hr
in
rain 24hr
in
rain mn
in
humidity
%
barometer
mb
20260902034027 82 275 0.0 0.0 0.00 0.00 0.00 74 1015.0
20260902033048 83 275 0.0 0.0 0.00 0.00 0.00 73 1014.8
20260902032113 83 275 0.0 0.0 0.00 0.00 0.00 71 1014.8
20260902031039 84 275 0.0 0.0 0.00 0.00 0.00 72 1014.7
20260902030046 84 275 0.0 0.9 0.00 0.00 0.00 70 1014.6
20260902025030 84 275 0.0 0.0 0.00 0.00 0.00 70 1014.5
20260902021726 84 275 0.0 0.0 0.00 0.00 0.00 72 1015.0
20260902015554 85 275 0.0 0.0 0.00 0.00 0.00 72 1014.6
20260902014611 85 275 0.0 0.0 0.00 0.00 0.00 72 1014.5
20260902012508 86 275 0.0 0.0 0.00 0.00 0.00 72 1014.4
20260902011511 86 275 0.0 0.0 0.00 0.00 0.00 72 1014.3
20260902010535 87 275 0.0 0.0 0.00 0.00 0.00 70 1014.2
20260902005549 87 275 0.0 2.6 0.00 0.00 0.00 68 1014.0
20260902004534 88 275 0.0 0.0 0.00 0.00 0.00 69 1014.0
20260902003506 88 275 0.0 1.7 0.00 0.00 0.00 67 1013.6
20260902002514 89 277 0.0 0.0 0.00 0.00 0.00 66 1013.4
20260902001453 89 277 0.0 0.0 0.00 0.00 0.00 65 1013.2
20260902000515 90 277 0.0 0.0 0.00 0.00 0.00 63 1013.1
20260901235520 90 277 0.0 0.0 0.00 0.00 0.00 62 1013.1
20260901234522 91 277 0.0 0.0 0.00 0.00 0.00 61 1013.0
20260901233514 92 277 0.0 0.0 0.00 0.00 0.00 60 1013.0
20260901231424 92 219 0.0 3.5 0.00 0.00 0.00 58 1013.3
20260901230351 93 240 0.0 3.5 0.00 0.00 0.00 58 1013.3
20260901225407 93 275 0.9 5.2 0.00 0.00 0.00 57 1013.4
20260901224337 93 271 0.9 7.0 0.00 0.00 0.00 56 1013.3
20260901223341 94 250 0.9 7.0 0.00 0.00 0.00 54 1013.3
20260901222332 94 217 0.9 5.2 0.00 0.00 0.00 54 1013.4
20260901221355 95 259 0.9 0.9 0.00 0.00 0.00 52 1013.4
20260901220351 95 279 1.7 7.8 0.00 0.00 0.00 50 1013.4
20260901215335 96 287 1.7 7.8 0.00 0.00 0.00 50 1013.4
20260901214306 96 333 0.9 7.8 0.00 0.00 0.00 52 1013.5
20260901213321 96 274 0.9 7.8 0.00 0.00 0.00 49 1013.5
20260901211151 96 256 0.9 7.8 0.00 0.00 0.00 49 1013.4
20260901210144 97 323 1.7 6.1 0.00 0.00 0.00 49 1013.6
20260901205204 97 275 1.7 7.0 0.00 0.00 0.00 49 1013.6
20260901204154 97 232 0.0 7.0 0.00 0.00 0.00 49 1013.7
20260901203147 96 208 1.7 6.1 0.00 0.00 0.00 51 1013.8
20260901202126 96 266 0.9 6.1 0.00 0.00 0.00 51 1013.9
20260901200001 97 332 1.7 6.1 0.00 0.00 0.00 50 1014.2
20260901195021 98 260 1.7 7.0 0.00 0.00 0.00 49 1014.3
20260901194026 98 267 2.6 7.0 0.00 0.00 0.00 50 1014.2
20260901192959 97 207 0.9 5.2 0.00 0.00 0.00 50 1014.4
20260901191959 97 275 0.0 0.9 0.00 0.00 0.00 52 1014.5
20260901191016 98 301 0.0 0.0 0.00 0.00 0.00 50 1014.7
20260901184844 99 346 0.9 7.8 0.00 0.00 0.00 49 1014.8
20260901183837 99 315 1.7 7.8 0.00 0.00 0.00 49 1014.8
20260901182809 97 311 0.0 3.5 0.00 0.00 0.00 50 1014.8
20260901181825 98 290 0.0 0.0 0.00 0.00 0.00 48 1014.8
20260901180825 98 281 0.0 3.5 0.00 0.00 0.00 50 1014.7
20260901175809 96 266 0.0 3.5 0.00 0.00 0.00 52 1014.8
20260901174752 97 309 0.0 5.2 0.00 0.00 0.00 52 1014.9
20260901173746 97 276 0.0 0.9 0.00 0.00 0.00 50 1014.8
20260901172810 98 274 0.0 0.9 0.00 0.00 0.00 49 1014.8
20260901171737 99 331 0.0 6.1 0.00 0.00 0.00 50 1014.8
20260901170735 98 300 0.0 0.9 0.00 0.00 0.00 51 1015.0
20260901165754 98 296 0.0 5.2 0.00 0.00 0.00 51 1015.2
20260901162529 96 347 0.9 4.3 0.00 0.00 0.00 53 1015.5
20260901161550 96 355 0.0 3.5 0.00 0.00 0.00 53 1015.5
20260901160529 96 278 0.0 4.3 0.00 0.00 0.00 54 1015.7
20260901155507 95 220 0.0 6.1 0.00 0.00 0.00 55 1015.8
20260901154512 94 355 0.9 6.1 0.00 0.00 0.00 54 1015.9
20260901153512 94 292 0.9 5.2 0.00 0.00 0.00 56 1016.1
20260901152503 94 300 0.9 5.2 0.00 0.00 0.00 55 1016.2
20260901151508 94 261 0.9 4.3 0.00 0.00 0.00 57 1016.4
20260901150509 93 316 0.0 6.1 0.00 0.00 0.00 57 1016.3
20260901145513 93 268 0.9 6.1 0.00 0.00 0.00 55 1016.3
20260901144511 93 219 0.9 5.2 0.00 0.00 0.00 56 1016.4
20260901143523 92 249 0.0 5.2 0.00 0.00 0.00 57 1016.4
20260901142500 90 332 0.0 0.0 0.00 0.00 0.00 59 1016.4
20260901141442 91 286 0.0 3.5 0.00 0.00 0.00 58 1016.4
20260901140503 92 286 0.0 0.0 0.00 0.00 0.00 57 1016.4
20260901135503 92 286 0.0 0.9 0.00 0.00 0.00 57 1016.4
20260901134435 91 286 0.0 0.0 0.00 0.00 0.00 61 1016.4
20260901133420 89 286 0.0 0.0 0.00 0.00 0.00 62 1016.5
20260901132429 88 292 0.0 0.0 0.00 0.00 0.00 65 1016.5
20260901130314 86 277 0.0 0.0 0.00 0.00 0.00 71 1016.7
20260901125247 85 277 0.0 0.0 0.00 0.00 0.00 72 1016.7
20260901123053 84 277 0.0 2.6 0.00 0.00 0.00 72 1016.9
20260901122044 84 284 0.0 0.0 0.00 0.00 0.00 74 1016.9
20260901121035 82 284 0.0 0.0 0.00 0.00 0.00 78 1016.8
20260901120013 80 284 0.0 0.0 0.00 0.00 0.00 82 1016.7
20260901113916 79 284 0.0 0.0 0.00 0.00 0.00 83 1016.5
20260901112855 79 284 0.0 0.0 0.00 0.00 0.00 84 1016.3
20260901111908 78 284 0.0 0.0 0.00 0.00 0.00 85 1016.3
20260901110908 78 285 0.0 0.0 0.00 0.00 0.00 85 1016.4
20260901105930 78 285 0.0 0.0 0.00 0.00 0.00 84 1016.4
20260901104929 78 285 0.0 3.5 0.00 0.00 0.00 84 1016.3
20260901103929 78 284 0.0 0.0 0.00 0.00 0.00 83 1016.2
20260901102949 78 284 0.0 0.0 0.00 0.00 0.00 83 1016.0
20260901102001 78 250 0.0 0.0 0.00 0.00 0.00 84 1016.1
20260901100959 78 286 0.0 4.3 0.00 0.00 0.00 85 1016.1
20260901100022 77 280 0.0 3.5 0.00 0.00 0.00 85 1016.0
20260901095008 77 281 0.0 1.7 0.00 0.00 0.00 86 1016.0
20260901094021 78 281 0.0 0.0 0.00 0.00 0.00 86 1015.9
20260901093047 78 281 0.0 0.0 0.00 0.00 0.00 86 1016.0
20260901092046 78 281 0.0 0.0 0.00 0.00 0.00 86 1016.2
20260901091016 77 282 0.0 3.5 0.00 0.00 0.00 87 1016.3
20260901090027 77 282 0.0 0.9 0.00 0.00 0.00 87 1016.2
20260901082812 78 302 0.0 0.0 0.00 0.00 0.00 87 1016.2
20260901081752 78 302 0.0 0.0 0.00 0.00 0.00 87 1016.2
20260901080816 78 191 0.0 2.6 0.00 0.01 0.00 87 1016.1
20260901075746 78 209 0.0 1.7 0.00 0.01 0.00 87 1016.2
20260901074725 78 252 0.0 3.5 0.00 0.01 0.00 88 1016.2
20260901073747 78 237 0.0 0.9 0.00 0.01 0.00 88 1016.3
20260901072745 78 237 0.0 0.9 0.00 0.01 0.00 88 1016.5
20260901071755 77 237 0.0 0.0 0.00 0.01 0.00 89 1016.5
20260901070814 77 237 0.0 0.0 0.00 0.01 0.00 89 1016.6
20260901065810 78 237 0.0 0.0 0.00 0.01 0.00 89 1016.6
20260901064828 77 237 0.0 0.0 0.00 0.01 0.00 89 1016.8
20260901063830 78 215 0.0 0.0 0.00 0.01 0.00 90 1016.8
20260901062828 78 215 0.0 0.0 0.00 0.01 0.00 90 1016.9
20260901061754 78 215 0.0 0.9 0.00 0.01 0.00 91 1016.8
20260901060720 78 214 0.0 0.0 0.00 0.01 0.00 91 1016.8
20260901055704 78 214 0.0 2.6 0.00 0.01 0.00 90 1016.9
20260901054632 78 214 0.0 0.0 0.00 0.01 0.00 90 1017.1
20260901053638 78 214 0.0 0.0 0.00 0.01 0.00 89 1017.1
20260901052622 78 214 0.0 0.0 0.00 0.01 0.00 89 1017.4
20260901051614 78 214 0.0 0.0 0.00 0.01 0.00 89 1017.3
20260901050600 78 214 0.0 0.0 0.00 0.01 0.00 89 1017.4
20260901045539 78 214 0.0 0.0 0.00 0.01 0.00 88 1017.5
20260901044527 78 214 0.0 0.0 0.00 0.01 0.00 88 1017.6
20260901043547 78 214 0.0 0.0 0.00 0.01 0.00 88 1017.6
20260901042542 78 214 0.0 0.0 0.00 0.01 0.00 89 1017.8
20260901041538 78 214 0.0 0.0 0.00 0.01 0.00 89 1017.8
20260901040512 77 214 0.0 0.0 0.00 0.01 0.00 90 1017.8
20260901035449 77 214 0.0 1.7 0.00 0.01 0.01 90 1017.8